When you browse on this site, cookies collect data to enhance your experience and personalize the content and advertising you see.
Visit our Privacy Policy to learn more. By continuing to use the site, you agree to this use of cookies and data.

Tiempo cada hora Perth

Hoy, 12 Julio, Domingo

Tiempo Temperatura Precipitaciones Viento Presión Humedad
00:00 +10°C° 0 mm 5 mps 766 mmHg 50%
01:00 +10°C° 0 mm 4 mps 766 mmHg 50%
02:00 +10°C° 0 mm 4 mps 765 mmHg 50%
03:00 +10°C° 0 mm 4 mps 765 mmHg 51%
04:00 +10°C° 0 mm 4 mps 765 mmHg 51%
05:00 +8°C° 0 mm 4 mps 764 mmHg 51%
06:00 +8°C° 0 mm 4 mps 764 mmHg 52%
07:00 +8°C° 0 mm 4 mps 764 mmHg 52%
08:00 +9°C° 0 mm 5 mps 764 mmHg 52%
09:00 +12°C° 0 mm 5 mps 764 mmHg 48%
10:00 +14°C° 0 mm 5 mps 763 mmHg 44%
11:00 +16°C° 0 mm 5 mps 763 mmHg 40%
12:00 +17°C° 0 mm 5 mps 762 mmHg 39%
13:00 +19°C° 0 mm 5 mps 761 mmHg 38%
14:00 +20°C° 0 mm 5 mps 760 mmHg 37%
15:00 +20°C° 0 mm 5 mps 760 mmHg 41%
16:00 +19°C° 0 mm 5 mps 760 mmHg 45%
17:00 +18°C° 0 mm 4 mps 759 mmHg 49%
18:00 +17°C° 0 mm 5 mps 759 mmHg 51%
19:00 +16°C° 0 mm 5 mps 759 mmHg 54%
20:00 +15°C° 0 mm 5 mps 759 mmHg 56%
21:00 +15°C° 0.2 mm 5 mps 759 mmHg 59%
22:00 +15°C° 0.2 mm 4 mps 759 mmHg 63%
23:00 +15°C° 0.2 mm 4 mps 760 mmHg 66%

Mañana, 13 Julio, Lunes

Tiempo Temperatura Precipitaciones Viento Presión Humedad
00:00 +15°C° 0.3 mm 4 mps 759 mmHg 70%
01:00 +16°C° 0.3 mm 3 mps 759 mmHg 74%
02:00 +16°C° 0.3 mm 3 mps 759 mmHg 78%
03:00 +16°C° 0.1 mm 3 mps 759 mmHg 80%
04:00 +16°C° 0.1 mm 3 mps 759 mmHg 82%
05:00 +16°C° 0.1 mm 3 mps 759 mmHg 85%
06:00 +16°C° 0.2 mm 3 mps 759 mmHg 85%
07:00 +16°C° 0.2 mm 3 mps 759 mmHg 86%
08:00 +16°C° 0.2 mm 3 mps 759 mmHg 87%
09:00 +16°C° 0.3 mm 3 mps 759 mmHg 86%
10:00 +17°C° 0.3 mm 3 mps 759 mmHg 85%
11:00 +18°C° 0.3 mm 3 mps 759 mmHg 83%
12:00 +18°C° 0.3 mm 4 mps 758 mmHg 81%
13:00 +18°C° 0.3 mm 4 mps 758 mmHg 78%
14:00 +19°C° 0.3 mm 4 mps 757 mmHg 76%
15:00 +18°C° 0.2 mm 3 mps 757 mmHg 78%
16:00 +18°C° 0.2 mm 3 mps 756 mmHg 80%
17:00 +18°C° 0.2 mm 3 mps 756 mmHg 82%
18:00 +18°C° 0.8 mm 3 mps 756 mmHg 84%
19:00 +18°C° 0.8 mm 4 mps 756 mmHg 87%
20:00 +17°C° 0.8 mm 5 mps 756 mmHg 89%
21:00 +17°C° 0.8 mm 5 mps 755 mmHg 87%
22:00 +17°C° 0.8 mm 6 mps 755 mmHg 86%
23:00 +17°C° 0.8 mm 7 mps 755 mmHg 84%

Pasado mañana, 14 Julio, Martes

Tiempo Temperatura Precipitaciones Viento Presión Humedad
00:00 +16°C° 1.5 mm 8 mps 754 mmHg 84%
01:00 +16°C° 1.5 mm 9 mps 754 mmHg 83%
02:00 +16°C° 1.5 mm 10 mps 753 mmHg 82%
03:00 +15°C° 2.3 mm 9 mps 754 mmHg 79%
04:00 +13°C° 2.3 mm 9 mps 755 mmHg 75%
05:00 +13°C° 2.3 mm 8 mps 755 mmHg 71%
06:00 +14°C° 0.2 mm 7 mps 756 mmHg 70%
07:00 +12°C° 0.2 mm 7 mps 757 mmHg 68%
08:00 +13°C° 0.2 mm 6 mps 758 mmHg 67%
09:00 +14°C° 0.1 mm 6 mps 758 mmHg 63%
10:00 +15°C° 0.1 mm 7 mps 759 mmHg 60%
11:00 +16°C° 0.1 mm 7 mps 760 mmHg 56%
12:00 +16°C° 0 mm 7 mps 759 mmHg 55%
13:00 +16°C° 0 mm 6 mps 759 mmHg 54%
14:00 +16°C° 0 mm 6 mps 758 mmHg 54%
15:00 +16°C° 0.1 mm 5 mps 759 mmHg 57%
16:00 +15°C° 0.1 mm 5 mps 759 mmHg 60%
17:00 +15°C° 0.1 mm 5 mps 760 mmHg 62%
18:00 +15°C° 0.1 mm 4 mps 760 mmHg 63%
19:00 +14°C° 0.1 mm 4 mps 761 mmHg 64%
20:00 +14°C° 0.1 mm 3 mps 761 mmHg 64%
21:00 +14°C° 0 mm 3 mps 761 mmHg 65%
22:00 +14°C° 0 mm 3 mps 761 mmHg 66%
23:00 +14°C° 0 mm 3 mps 761 mmHg 67%

15 Julio, Miércoles

Tiempo Temperatura Precipitaciones Viento Presión Humedad
00:00 +14°C° 0 mm 3 mps 761 mmHg 68%
01:00 +14°C° 0 mm 3 mps 761 mmHg 69%
02:00 +15°C° 0 mm 2 mps 761 mmHg 70%
03:00 +14°C° 0 mm 3 mps 761 mmHg 72%
04:00 +13°C° 0 mm 3 mps 761 mmHg 74%
05:00 +13°C° 0 mm 3 mps 760 mmHg 76%
06:00 +13°C° 0 mm 3 mps 761 mmHg 76%
07:00 +14°C° 0 mm 3 mps 761 mmHg 77%
08:00 +14°C° 0.1 mm 3 mps 761 mmHg 78%
09:00 +14°C° 0.1 mm 4 mps 761 mmHg 78%
10:00 +14°C° 0.1 mm 4 mps 761 mmHg 78%
11:00 +15°C° 0.1 mm 5 mps 761 mmHg 79%
12:00 +15°C° 0.1 mm 5 mps 760 mmHg 78%
13:00 +15°C° 0.1 mm 5 mps 760 mmHg 77%
14:00 +17°C° 0.1 mm 4 mps 759 mmHg 76%
15:00 +17°C° 0.2 mm 4 mps 759 mmHg 76%
16:00 +17°C° 0.2 mm 4 mps 759 mmHg 77%
17:00 +17°C° 0.2 mm 4 mps 759 mmHg 78%
18:00 +17°C° 0.3 mm 4 mps 759 mmHg 79%
19:00 +17°C° 0.3 mm 4 mps 759 mmHg 81%
20:00 +15°C° 0.3 mm 4 mps 759 mmHg 82%
21:00 +15°C° 0.2 mm 5 mps 759 mmHg 82%
22:00 +15°C° 0.2 mm 5 mps 759 mmHg 83%
23:00 +14°C° 0.2 mm 5 mps 759 mmHg 83%

16 Julio, Jueves

Tiempo Temperatura Precipitaciones Viento Presión Humedad
00:00 +14°C° 0.1 mm 5 mps 758 mmHg 84%
01:00 +14°C° 0.1 mm 5 mps 758 mmHg 85%
02:00 +14°C° 0.1 mm 5 mps 758 mmHg 85%
03:00 +14°C° 0.1 mm 5 mps 757 mmHg 86%
04:00 +14°C° 0.1 mm 5 mps 757 mmHg 87%
05:00 +14°C° 0.1 mm 5 mps 757 mmHg 87%
06:00 +14°C° 0.1 mm 5 mps 757 mmHg 86%
07:00 +15°C° 0.1 mm 6 mps 757 mmHg 86%
08:00 +15°C° 0.1 mm 6 mps 757 mmHg 85%
09:00 +16°C° 0.2 mm 7 mps 757 mmHg 79%
10:00 +18°C° 0.2 mm 8 mps 757 mmHg 73%
11:00 +20°C° 0.2 mm 8 mps 757 mmHg 67%
12:00 +20°C° 0.5 mm 8 mps 756 mmHg 67%
13:00 +20°C° 0.5 mm 8 mps 755 mmHg 67%
14:00 +20°C° 0.5 mm 8 mps 755 mmHg 67%
15:00 +18°C° 1.2 mm 7 mps 755 mmHg 72%
16:00 +17°C° 1.2 mm 7 mps 756 mmHg 78%
17:00 +16°C° 1.2 mm 6 mps 756 mmHg 84%
18:00 +16°C° 0.4 mm 5 mps 756 mmHg 81%
19:00 +16°C° 0.4 mm 5 mps 756 mmHg 79%
20:00 +15°C° 0.4 mm 5 mps 757 mmHg 77%
21:00 +15°C° 0.2 mm 5 mps 757 mmHg 75%
22:00 +15°C° 0.2 mm 5 mps 757 mmHg 73%
23:00 +14°C° 0.2 mm 5 mps 757 mmHg 71%

17 Julio, Viernes

Tiempo Temperatura Precipitaciones Viento Presión Humedad
00:00 +14°C° 0.1 mm 5 mps 757 mmHg 71%
01:00 +13°C° 0.1 mm 5 mps 758 mmHg 71%
02:00 +13°C° 0.1 mm 4 mps 758 mmHg 72%
03:00 +13°C° 0.1 mm 4 mps 758 mmHg 72%
04:00 +12°C° 0.1 mm 4 mps 758 mmHg 73%
05:00 +12°C° 0.1 mm 4 mps 759 mmHg 74%
06:00 +12°C° 0.2 mm 4 mps 759 mmHg 74%
07:00 +12°C° 0.2 mm 3 mps 760 mmHg 73%
08:00 +12°C° 0.2 mm 3 mps 760 mmHg 73%
09:00 +13°C° 0.1 mm 3 mps 760 mmHg 70%
10:00 +14°C° 0.1 mm 3 mps 761 mmHg 66%
11:00 +15°C° 0.1 mm 4 mps 761 mmHg 62%
12:00 +15°C° 0.2 mm 4 mps 761 mmHg 62%
13:00 +15°C° 0.2 mm 4 mps 760 mmHg 62%
14:00 +15°C° 0.2 mm 4 mps 760 mmHg 63%
15:00 +16°C° 0.2 mm 3 mps 760 mmHg 65%
16:00 +14°C° 0.2 mm 3 mps 760 mmHg 67%
17:00 +14°C° 0.2 mm 3 mps 761 mmHg 69%
18:00 +15°C° 0.1 mm 2 mps 761 mmHg 69%
19:00 +14°C° 0.1 mm 2 mps 762 mmHg 70%
20:00 +14°C° 0.1 mm 1 mps 762 mmHg 70%
21:00 +14°C° 0.1 mm 2 mps 762 mmHg 71%
22:00 +14°C° 0.1 mm 2 mps 762 mmHg 73%
23:00 +13°C° 0.1 mm 2 mps 762 mmHg 75%
Mostrar más